GW1938 Weather Reports


time (UTC)temp
F
wind
direction
speed
knots
gust
knots
rain 1hr
in
rain 24hr
in
rain mn
in
humidity
%
barometer
mb
20260503173713 67 26 4.3 8.7 0.00 0.00 0.00 83 1014.8
20260503173211 67 26 5.2 10.4 0.00 0.00 0.00 83 1014.7
20260503172710 67 22 6.1 9.6 0.00 0.00 0.00 83 1014.8
20260503172209 67 16 6.1 8.7 0.00 0.00 0.00 83 1014.7
20260503171204 67 34 5.2 8.7 0.00 0.00 0.00 85 1014.8
20260503170703 66 37 4.3 7.0 0.00 0.00 0.00 85 1014.9
20260503170201 66 35 5.2 7.8 0.00 0.00 0.00 85 1014.9
20260503160126 66 21 4.3 8.7 0.00 0.00 0.00 86 1015.4
20260503150605 67 22 7.0 11.3 0.00 0.00 0.00 85 1015.8
20260503150104 67 21 7.0 11.3 0.00 0.00 0.00 85 1015.9
20260503131017 68 17 7.8 12.2 0.00 0.00 0.00 86 1017.1
20260503110423 68 8 8.7 13.9 0.00 0.00 0.00 86 1018.1
20260503090335 69 19 9.6 13.9 0.00 0.00 0.00 86 1017.6
20260503081317 69 15 9.6 14.8 0.00 0.00 0.00 83 1017.4
20260503080816 70 21 9.6 13.0 0.00 0.00 0.00 82 1017.4
20260503072759 70 24 10.4 15.6 0.00 0.00 0.00 81 1017.3
20260503072256 70 28 10.4 14.8 0.00 0.00 0.00 81 1017.3
20260503071251 71 29 10.4 14.8 0.00 0.00 0.00 81 1017.2
20260503070750 71 31 11.3 16.5 0.00 0.00 0.00 80 1017.1
20260503070248 71 30 13.0 16.5 0.00 0.00 0.00 79 1017.2
20260503060224 72 34 10.4 13.9 0.00 0.00 0.00 74 1017.3
20260503054217 73 41 11.3 16.5 0.00 0.00 0.00 75 1017.4
20260503053212 73 44 12.2 18.2 0.00 0.00 0.00 74 1017.5
20260503052711 73 48 13.0 20.0 0.00 0.00 0.00 74 1017.5
20260503052210 73 45 11.3 18.2 0.00 0.00 0.00 74 1017.6
20260503051708 73 46 12.2 16.5 0.00 0.00 0.00 74 1017.5
20260503051207 73 44 11.3 17.4 0.00 0.00 0.00 74 1017.5
20260503050706 73 46 13.0 17.4 0.00 0.00 0.00 74 1017.6
20260503045700 73 43 10.4 17.4 0.00 0.00 0.00 73 1017.6
20260503044656 73 46 12.2 18.2 0.00 0.00 0.00 72 1017.6
20260503044154 73 50 13.0 19.1 0.00 0.00 0.00 72 1017.6
20260503043652 73 48 13.0 19.1 0.00 0.00 0.00 71 1017.6
20260503043151 73 49 13.9 21.7 0.00 0.00 0.00 70 1017.7
20260503042649 73 49 13.9 20.0 0.00 0.00 0.00 72 1017.8
20260503042148 73 49 13.9 20.9 0.00 0.00 0.00 71 1017.7
20260503041647 73 46 12.2 17.4 0.00 0.00 0.00 70 1017.7
20260503041146 74 36 9.6 13.9 0.00 0.00 0.00 65 1017.7
20260503040643 74 40 9.6 13.9 0.00 0.00 0.00 66 1017.7
20260503040142 74 48 13.0 20.9 0.00 0.00 0.00 66 1017.7
20260503035641 75 46 12.2 19.1 0.00 0.00 0.00 65 1017.8
20260503034634 75 39 9.6 13.0 0.00 0.00 0.00 62 1017.9
20260503034132 75 37 9.6 12.2 0.00 0.00 0.00 63 1017.9
20260503033631 75 41 9.6 15.6 0.00 0.00 0.00 62 1017.9
20260503033130 75 42 9.6 13.9 0.00 0.00 0.00 65 1018.0
20260503032628 75 42 10.4 15.6 0.00 0.00 0.00 64 1018.0
20260503032126 75 42 9.6 13.9 0.00 0.00 0.00 66 1018.1
20260503031121 75 37 9.6 13.0 0.00 0.00 0.00 63 1018.3
20260503030620 74 38 9.6 13.9 0.00 0.00 0.00 65 1018.3
20260503025614 74 40 8.7 12.2 0.00 0.00 0.00 67 1018.4
20260503025113 74 38 9.6 14.8 0.00 0.00 0.00 68 1018.5
20260503024611 74 44 10.4 14.8 0.00 0.00 0.00 65 1018.6
20260503022559 75 47 11.3 15.6 0.00 0.00 0.00 64 1018.9
20260503021555 74 38 8.7 12.2 0.00 0.00 0.00 64 1019.2
20260503021053 74 33 8.7 12.2 0.00 0.00 0.00 65 1019.4
20260503020048 74 33 9.6 12.2 0.00 0.00 0.00 65 1019.3
20260503015043 74 38 9.6 13.9 0.00 0.00 0.00 67 1019.6
20260503014038 74 36 9.6 13.0 0.00 0.00 0.00 66 1019.6
20260503013537 74 39 10.4 16.5 0.00 0.00 0.00 68 1019.6
20260503012029 74 39 8.7 13.0 0.00 0.00 0.00 67 1019.9
20260503011527 74 38 9.6 13.0 0.00 0.00 0.00 69 1020.0
20260503011026 74 37 8.7 13.0 0.00 0.00 0.00 67 1020.2
20260503010524 75 34 8.7 12.2 0.00 0.00 0.00 68 1020.2
20260503010023 74 35 8.7 12.2 0.00 0.00 0.00 68 1020.2
20260503005521 74 34 8.7 13.0 0.00 0.00 0.00 69 1020.3
20260503005019 74 29 8.7 12.2 0.00 0.00 0.00 71 1020.3
20260503003007 73 27 8.7 13.0 0.00 0.00 0.00 71 1020.7
20260503002506 74 30 9.6 16.5 0.00 0.00 0.00 69 1020.9
20260503002004 73 33 7.8 10.4 0.00 0.00 0.00 69 1021.0
20260503001501 73 37 7.0 11.3 0.00 0.00 0.00 69 1020.9
20260503000959 73 45 7.8 11.3 0.00 0.00 0.00 72 1021.0
20260503000458 73 40 7.0 9.6 0.00 0.00 0.00 71 1020.9
20260502235453 73 44 6.1 10.4 0.00 0.00 0.00 72 1021.1
20260502234952 73 35 5.2 7.8 0.00 0.00 0.00 73 1021.2
20260502234451 72 36 4.3 6.1 0.00 0.00 0.00 73 1021.3
20260502233949 72 37 5.2 11.3 0.00 0.00 0.00 75 1021.3
20260502233447 72 37 4.3 6.1 0.00 0.00 0.00 75 1021.4
20260502232443 72 43 3.5 6.1 0.00 0.00 0.00 73 1021.3
20260502231942 72 43 4.3 7.0 0.00 0.00 0.00 73 1021.3
20260502231438 72 37 4.3 7.0 0.00 0.00 0.00 72 1021.2
20260502230937 72 34 4.3 8.7 0.00 0.00 0.00 73 1021.2
20260502230435 71 15 5.2 9.6 0.00 0.00 0.00 73 1021.1
20260502225933 71 11 5.2 8.7 0.00 0.00 0.00 72 1021.2
20260502225432 71 14 5.2 8.7 0.00 0.00 0.00 75 1021.2
20260502224931 71 18 4.3 7.8 0.00 0.00 0.00 75 1021.3
20260502223924 70 21 4.3 7.0 0.00 0.00 0.00 75 1021.3
20260502223421 70 22 4.3 6.1 0.00 0.00 0.00 75 1021.3
20260502222919 70 28 4.3 6.1 0.00 0.00 0.00 76 1021.2
20260502222417 69 22 4.3 7.0 0.00 0.00 0.00 77 1021.2
20260502221916 69 27 5.2 7.0 0.00 0.00 0.00 76 1021.3
20260502221415 69 36 4.3 7.0 0.00 0.00 0.00 78 1021.3
20260502220914 69 38 3.5 5.2 0.00 0.00 0.00 77 1021.3
20260502220412 69 41 3.5 5.2 0.00 0.00 0.00 77 1021.2
20260502215909 69 32 4.3 6.1 0.00 0.00 0.00 77 1021.1
20260502215407 69 34 3.5 5.2 0.00 0.00 0.00 79 1021.2
20260502214905 68 36 3.5 5.2 0.00 0.00 0.00 81 1021.1
20260502214402 68 38 3.5 4.3 0.00 0.00 0.00 81 1021.1
20260502213356 67 41 2.6 4.3 0.00 0.01 0.00 84 1021.0
20260502212855 66 36 2.6 4.3 0.00 0.01 0.00 87 1021.1
20260502211850 65 17 2.6 3.5 0.00 0.02 0.00 88 1020.9
20260502211348 65 15 2.6 4.3 0.00 0.02 0.00 88 1020.9
20260502210344 64 22 2.6 4.3 0.00 0.02 0.00 89 1020.9
20260502205843 64 16 3.5 4.3 0.00 0.02 0.00 89 1020.8
20260502205341 64 8 3.5 5.2 0.00 0.02 0.00 89 1020.7
20260502204840 64 6 4.3 6.1 0.00 0.02 0.00 89 1020.6
20260502204339 64 2 4.3 6.1 0.00 0.02 0.00 89 1020.6
20260502203838 64 358 4.3 7.0 0.00 0.02 0.00 88 1020.6
20260502203335 64 2 6.1 8.7 0.00 0.02 0.00 88 1020.5
20260502202834 64 1 6.1 9.6 0.00 0.02 0.00 88 1020.5
20260502202332 64 2 5.2 7.8 0.00 0.02 0.00 88 1020.4
20260502201831 64 1 4.3 7.0 0.00 0.02 0.00 88 1020.4
20260502200826 64 8 5.2 7.8 0.00 0.02 0.00 87 1020.4
20260502195822 65 10 6.1 10.4 0.00 0.02 0.00 86 1020.3
20260502195321 65 10 5.2 7.8 0.00 0.02 0.00 86 1020.3
20260502193813 64 7 6.1 9.6 0.00 0.02 0.00 88 1020.2
20260502193311 64 6 6.1 10.4 0.00 0.02 0.00 88 1020.1
20260502192810 64 8 6.1 8.7 0.00 0.02 0.00 88 1020.2
20260502192306 64 7 5.2 10.4 0.00 0.02 0.00 88 1020.1
20260502191805 64 8 6.1 9.6 0.00 0.02 0.00 89 1020.1
20260502191304 64 7 6.1 9.6 0.00 0.02 0.00 89 1020.1
20260502190801 64 7 6.1 9.6 0.00 0.02 0.00 88 1020.1
20260502190300 65 5 6.1 8.7 0.00 0.02 0.00 88 1020.2
20260502185256 65 5 6.1 9.6 0.00 0.02 0.00 86 1020.1
20260502184754 66 11 6.1 9.6 0.00 0.02 0.00 86 1020.1
20260502183244 65 17 6.1 7.8 0.00 0.02 0.00 86 1020.0
20260502182742 65 18 5.2 8.7 0.00 0.02 0.00 87 1020.0
20260502182240 65 15 5.2 7.0 0.00 0.02 0.00 87 1020.1
20260502181739 65 18 5.2 7.8 0.00 0.02 0.00 86 1020.1
20260502181238 65 24 4.3 7.0 0.00 0.02 0.00 86 1020.1
20260502180736 65 24 4.3 7.8 0.00 0.02 0.00 86 1020.1